CAPE
13 7 6 10 2 0 0 0 0 0 0 0 0 0 0 0 0 0 0 0 0 0
13 0 8 10 8 3 1 0 0 0 0 0 0 0 0 0 0 0 0 0 0 0
2 0 0 5 0 0 7 0 0 0 0 0 0 0 0 0 0 0 0 0 0 0
18 0 0 0 0 1 1 2 0 0 0 0 0 0 0 0 0 0 0 0 0 0
88 0 0 0 0 0 3 0 0 0 0 0 0 0 0 0 0 0 0 0 0 0
119 50 1 0 0 0 0 0 0 0 0 0 0 0 0 0 0 0 0 0 0 0
56 51 15 11 8 2 0 0 0 0 0 0 0 0 0 0 0 0 0 0 0 0
0 0 13 5 0 0 0 0 0 0 0 0 0 0 0 0 0 0 0 0 0 0
0 0 0 0 0 0 0 0 0 0 0 0 0 0 0 0 0 0 0 0 0 0
0 0 0 0 0 0 0 0 0 0 0 0 0 0 0 0 0 0 0 0 0 0
0 0 1 0 0 0 0 0 0 0 0 0 0 0 0 0 0 0 0 0 0 0
1 1 3 3 4 2 2 3 2 0 0 0 0 0 0 0 0 0 0 0 0 0
1 2 3 4 5 2 2 4 1 1 0 0 0 0 0 0 0 0 0 0 0 0
0 1 1 2 2 2 2 2 2 1 1 1 0 0 0 0 0 0 0 0 0 0
CIN
-209 -1 -5 -5 -16 0 0 0 0 0 0 0 0 0 0 0 0 0 0 0 0 0
-218 0 -19 -18 -22 -23 -30 -4 0 0 0 0 0 0 0 0 0 0 0 0 0 0
-204 0 -9 -31 -15 -11 -28 0 0 0 0 0 0 0 0 0 0 0 0 0 0 0
-251 0 0 -6 -17 -34 -22 -24 0 0 0 0 0 0 0 0 0 0 0 0 0 0
-140 0 0 0 0 0 -24 0 0 0 0 0 0 0 0 0 0 0 0 0 0 0
-114 -126 -2 0 0 -2 0 0 0 0 0 0 0 0 0 0 0 0 0 0 0 0
-156 -127 -147 -168 -143 -66 0 0 0 0 0 0 0 0 0 0 0 0 0 0 0 0
-2 0 -123 -42 0 0 0 0 0 0 0 0 0 0 0 0 0 0 0 0 0 0
-1 0 0 0 0 0 0 0 0 0 0 0 0 0 0 0 0 0 0 0 0 0
0 0 0 0 0 0 0 0 0 0 0 0 0 0 0 0 0 0 0 0 0 0
0 0 0 0 0 0 0 0 0 0 0 0 0 0 0 0 0 0 0 0 0 0
0 0 0 0 0 0 0 0 0 0 0 0 0 0 0 0 0 0 0 0 0 0
0 0 0 0 0 0 0 0 0 0 0 0 0 0 0 0 0 0 0 0 0 0
0 0 0 0 0 0 0 0 0 0 0 0 0 0 0 0 0 0 0 0 0 0
Wind_Speed
12 10 9 8 5 5 6 8 8 9 9 9 10 10 11 11 13 12 13 14 15 18
13 13 11 9 9 7 8 9 9 10 10 10 9 9 10 12 12 12 13 14 15 17
14 14 13 12 11 10 10 10 10 10 10 11 11 11 11 11 12 12 13 13 15 17
16 16 15 15 14 13 12 12 12 11 11 12 12 12 13 13 12 13 13 13 15 16
18 16 16 16 16 15 15 14 13 12 13 13 13 13 14 15 15 14 13 13 14 15
20 19 18 17 16 16 15 15 14 13 14 14 14 15 15 16 15 15 14 14 15 16
22 21 20 18 18 17 16 16 15 15 15 14 13 14 14 15 14 14 14 14 16 17
23 22 21 19 18 19 18 17 16 16 16 16 15 14 14 15 14 14 14 15 16 18
25 23 22 21 20 20 19 19 18 17 17 17 18 15 15 14 14 14 14 15 16 16
23 23 23 22 21 21 21 20 20 20 18 18 17 15 14 14 14 15 15 15 16 16
24 24 23 23 22 21 20 21 19 21 19 18 17 14 14 13 14 14 14 16 16 17
23 24 24 24 23 22 21 20 20 17 18 16 17 14 14 14 14 14 15 15 17 17
22 23 23 22 21 20 20 20 18 18 17 16 15 15 13 13 12 15 14 15 17 18
22 21 21 20 19 19 19 18 18 18 16 16 15 14 13 13 13 13 14 15 16 18
Wind_Direction
205 207 206 200 205 241 260 270 279 282 292 301 307 312 318 322 325 331 336 343 346 340
218 218 220 222 221 241 261 275 273 276 283 290 296 299 309 311 316 323 332 339 344 338
227 229 232 237 234 244 261 269 268 272 276 284 289 286 295 303 309 316 326 335 336 337
237 237 240 239 241 246 258 260 265 267 269 277 281 279 283 292 299 306 316 326 332 335
242 241 240 242 243 247 252 256 261 262 266 273 276 275 277 284 291 297 306 316 324 329
244 242 242 244 244 246 248 251 256 260 264 265 268 273 278 284 288 295 301 311 319 325
246 243 244 247 247 250 248 247 254 259 261 261 263 269 274 279 285 295 299 309 318 324
253 249 247 246 249 251 249 248 252 258 263 266 266 266 271 276 278 288 295 303 314 320
256 254 251 252 252 252 252 251 253 253 256 262 268 265 271 272 280 288 295 300 310 318
255 252 251 253 250 250 252 253 256 255 256 263 259 252 271 271 276 285 295 300 307 312
258 255 256 255 253 254 253 252 253 258 255 260 249 259 267 267 284 287 296 303 305 309
260 257 257 255 254 255 253 255 255 254 253 249 257 257 255 267 277 284 296 301 302 315
264 260 257 256 255 257 256 258 255 255 254 255 252 255 255 264 271 279 286 298 304 312
267 263 259 258 257 256 257 257 258 258 256 258 250 248 255 267 272 275 287 295 302 312